Location: Baia Mare
(47.6567°N, 23.5850°E)
Time: 09:48:42
(UTC+03:00)

ISS - Pass Details

Date: 17 July 2018
Orbit: 402 x 408 km, 51.6° (Epoch: 16 July)

Event Time Altitude Azimuth Distance (km) Brightness Sun altitude
Rises 04:15:44 0° 291° (WNW) 2,331 -0.2 -11.9°
Reaches altitude 10° 04:17:51 10° 296° (WNW) 1,470 -1.1 -11.7°
Maximum altitude 04:21:06 54° 15° (NNE) 503 -3.0 -11.3°
Drops below altitude 10° 04:24:20 10° 94° (E) 1,468 -0.5 -11.0°
Sets 04:26:27 0° 99° (E) 2,328 0.5 -10.8°
